Hourly Weather Rudivka

Today, 3 August, Tuesday

Time Temperature Precipitation Wind Pressure Humidity
00:00 +19°C° 0 mm 3 mps 747 mmHg 82%
01:00 +18°C° 0 mm 3 mps 747 mmHg 85%
02:00 +17°C° 0 mm 3 mps 747 mmHg 89%
03:00 +17°C° 0 mm 2 mps 747 mmHg 90%
04:00 +16°C° 0 mm 2 mps 747 mmHg 90%
05:00 +16°C° 0 mm 2 mps 748 mmHg 91%
06:00 +18°C° 0 mm 2 mps 748 mmHg 82%
07:00 +19°C° 0 mm 2 mps 748 mmHg 73%
08:00 +21°C° 0 mm 3 mps 749 mmHg 63%
09:00 +22°C° 0 mm 3 mps 749 mmHg 57%
10:00 +25°C° 0 mm 3 mps 749 mmHg 50%
11:00 +26°C° 0 mm 3 mps 749 mmHg 44%
12:00 +27°C° 0 mm 3 mps 749 mmHg 41%
13:00 +28°C° 0 mm 3 mps 749 mmHg 38%
14:00 +28°C° 0 mm 4 mps 748 mmHg 35%
15:00 +28°C° 0 mm 4 mps 748 mmHg 36%
16:00 +27°C° 0 mm 4 mps 749 mmHg 37%
17:00 +27°C° 0 mm 5 mps 749 mmHg 39%
18:00 +25°C° 0 mm 4 mps 749 mmHg 42%
19:00 +24°C° 0 mm 3 mps 749 mmHg 46%
20:00 +23°C° 0 mm 2 mps 750 mmHg 50%
21:00 +21°C° 0 mm 2 mps 750 mmHg 53%
22:00 +20°C° 0 mm 2 mps 750 mmHg 56%
23:00 +19°C° 0 mm 2 mps 751 mmHg 59%

Tomorrow, 4 August, Wednesday

Time Temperature Precipitation Wind Pressure Humidity
00:00 +19°C° 0 mm 1 mps 751 mmHg 62%
01:00 +18°C° 0 mm 1 mps 751 mmHg 65%
02:00 +16°C° 0 mm 1 mps 751 mmHg 69%
03:00 +18°C° 0 mm 1 mps 751 mmHg 68%
04:00 +18°C° 0 mm 1 mps 751 mmHg 68%
05:00 +18°C° 0 mm 1 mps 751 mmHg 68%
06:00 +20°C° 0 mm 1 mps 751 mmHg 61%
07:00 +22°C° 0 mm 1 mps 752 mmHg 54%
08:00 +24°C° 0 mm 1 mps 752 mmHg 48%
09:00 +25°C° 0 mm 2 mps 752 mmHg 44%
10:00 +26°C° 0 mm 2 mps 752 mmHg 40%
11:00 +28°C° 0 mm 3 mps 752 mmHg 36%
12:00 +28°C° 0 mm 3 mps 752 mmHg 35%
13:00 +28°C° 0 mm 2 mps 752 mmHg 33%
14:00 +29°C° 0 mm 2 mps 751 mmHg 32%
15:00 +29°C° 0 mm 2 mps 751 mmHg 32%
16:00 +29°C° 0 mm 2 mps 751 mmHg 33%
17:00 +29°C° 0 mm 2 mps 751 mmHg 33%
18:00 +27°C° 0 mm 2 mps 751 mmHg 37%
19:00 +25°C° 0 mm 2 mps 751 mmHg 41%
20:00 +23°C° 0 mm 2 mps 751 mmHg 46%
21:00 +23°C° 0 mm 2 mps 751 mmHg 47%
22:00 +21°C° 0 mm 2 mps 751 mmHg 49%
23:00 +20°C° 0 mm 2 mps 751 mmHg 50%

Day after tomorrow, 5 August, Thursday

Time Temperature Precipitation Wind Pressure Humidity
00:00 +20°C° 0 mm 2 mps 750 mmHg 51%
01:00 +20°C° 0 mm 3 mps 750 mmHg 51%
02:00 +20°C° 0 mm 3 mps 750 mmHg 51%
03:00 +20°C° 0 mm 2 mps 750 mmHg 52%
04:00 +20°C° 0 mm 2 mps 750 mmHg 54%
05:00 +20°C° 0 mm 2 mps 750 mmHg 55%
06:00 +20°C° 0.1 mm 2 mps 750 mmHg 58%
07:00 +20°C° 0.1 mm 2 mps 750 mmHg 62%
08:00 +20°C° 0.1 mm 2 mps 749 mmHg 66%
09:00 +21°C° 0.1 mm 2 mps 749 mmHg 63%
10:00 +22°C° 0.1 mm 3 mps 749 mmHg 60%
11:00 +22°C° 0.1 mm 4 mps 749 mmHg 57%
12:00 +25°C° 0 mm 4 mps 749 mmHg 52%
13:00 +27°C° 0 mm 4 mps 748 mmHg 47%
14:00 +29°C° 0 mm 5 mps 748 mmHg 42%
15:00 +30°C° 0 mm 4 mps 748 mmHg 41%
16:00 +30°C° 0 mm 4 mps 747 mmHg 39%
17:00 +32°C° 0 mm 4 mps 746 mmHg 38%
18:00 +29°C° 0.1 mm 4 mps 746 mmHg 46%
19:00 +27°C° 0.1 mm 4 mps 746 mmHg 54%
20:00 +24°C° 0.1 mm 3 mps 745 mmHg 62%
21:00 +24°C° 0.1 mm 3 mps 745 mmHg 65%
22:00 +22°C° 0.1 mm 3 mps 745 mmHg 69%
23:00 +21°C° 0.1 mm 4 mps 745 mmHg 72%

6 August, Friday

Time Temperature Precipitation Wind Pressure Humidity
00:00 +21°C° 0.2 mm 4 mps 745 mmHg 74%
01:00 +20°C° 0.2 mm 4 mps 745 mmHg 76%
02:00 +20°C° 0.2 mm 4 mps 745 mmHg 78%
03:00 +20°C° 0 mm 5 mps 744 mmHg 77%
04:00 +20°C° 0 mm 5 mps 744 mmHg 77%
05:00 +20°C° 0 mm 6 mps 744 mmHg 77%
06:00 +22°C° 0 mm 6 mps 744 mmHg 70%
07:00 +24°C° 0 mm 6 mps 744 mmHg 63%
08:00 +26°C° 0 mm 6 mps 744 mmHg 56%
09:00 +28°C° 0 mm 6 mps 744 mmHg 49%
10:00 +30°C° 0 mm 7 mps 744 mmHg 41%
11:00 +33°C° 0 mm 7 mps 744 mmHg 34%
12:00 +33°C° 0 mm 7 mps 743 mmHg 35%
13:00 +34°C° 0 mm 7 mps 743 mmHg 36%
14:00 +34°C° 0 mm 7 mps 743 mmHg 37%
15:00 +32°C° 0.1 mm 7 mps 743 mmHg 44%
16:00 +29°C° 0.1 mm 6 mps 743 mmHg 50%
17:00 +27°C° 0.1 mm 6 mps 744 mmHg 57%
18:00 +25°C° 0.1 mm 5 mps 743 mmHg 65%
19:00 +24°C° 0.1 mm 3 mps 743 mmHg 73%
20:00 +21°C° 0.1 mm 2 mps 743 mmHg 81%
21:00 +21°C° 0.3 mm 2 mps 743 mmHg 82%
22:00 +21°C° 0.3 mm 2 mps 743 mmHg 83%
23:00 +21°C° 0.3 mm 2 mps 743 mmHg 84%

7 August, Saturday

Time Temperature Precipitation Wind Pressure Humidity
00:00 +20°C° 0.4 mm 2 mps 743 mmHg 86%
01:00 +20°C° 0.4 mm 2 mps 743 mmHg 88%
02:00 +20°C° 0.4 mm 1 mps 743 mmHg 90%
03:00 +20°C° 0.9 mm 1 mps 743 mmHg 92%
04:00 +20°C° 0.9 mm 1 mps 743 mmHg 93%
05:00 +20°C° 0.9 mm 1 mps 743 mmHg 94%
06:00 +21°C° 0.5 mm 1 mps 743 mmHg 90%
07:00 +22°C° 0.5 mm 1 mps 743 mmHg 87%
08:00 +23°C° 0.5 mm 2 mps 743 mmHg 83%
09:00 +25°C° 0 mm 2 mps 743 mmHg 76%
10:00 +26°C° 0 mm 2 mps 743 mmHg 69%
11:00 +28°C° 0 mm 3 mps 743 mmHg 61%
12:00 +28°C° 0 mm 3 mps 743 mmHg 59%
13:00 +29°C° 0 mm 3 mps 743 mmHg 57%
14:00 +29°C° 0 mm 4 mps 743 mmHg 55%
15:00 +28°C° 0.1 mm 4 mps 744 mmHg 59%
16:00 +27°C° 0.1 mm 5 mps 744 mmHg 63%
17:00 +26°C° 0.1 mm 6 mps 744 mmHg 67%
18:00 +25°C° 0.2 mm 5 mps 745 mmHg 70%
19:00 +23°C° 0.2 mm 4 mps 745 mmHg 73%
20:00 +22°C° 0.2 mm 4 mps 746 mmHg 76%
21:00 +21°C° 0.2 mm 3 mps 746 mmHg 78%
22:00 +20°C° 0.2 mm 3 mps 746 mmHg 81%
23:00 +20°C° 0.2 mm 3 mps 746 mmHg 83%

8 August, Sunday

Time Temperature Precipitation Wind Pressure Humidity
00:00 +19°C° 0 mm 3 mps 747 mmHg 84%
01:00 +18°C° 0 mm 3 mps 747 mmHg 85%
02:00 +18°C° 0 mm 3 mps 747 mmHg 87%
03:00 +17°C° 0 mm 3 mps 747 mmHg 87%
04:00 +17°C° 0 mm 3 mps 748 mmHg 87%
05:00 +16°C° 0 mm 3 mps 748 mmHg 87%
06:00 +18°C° 0 mm 4 mps 748 mmHg 80%
07:00 +20°C° 0 mm 4 mps 748 mmHg 73%
08:00 +21°C° 0 mm 5 mps 749 mmHg 66%
09:00 +23°C° 0 mm 5 mps 749 mmHg 59%
10:00 +26°C° 0 mm 5 mps 749 mmHg 52%
11:00 +27°C° 0 mm 5 mps 749 mmHg 46%
12:00 +28°C° 0 mm 5 mps 749 mmHg 44%
13:00 +29°C° 0 mm 5 mps 749 mmHg 42%
14:00 +29°C° 0 mm 6 mps 749 mmHg 40%
15:00 +29°C° 0 mm 5 mps 749 mmHg 40%
16:00 +29°C° 0 mm 5 mps 750 mmHg 41%
17:00 +29°C° 0 mm 5 mps 750 mmHg 42%
18:00 +27°C° 0 mm 4 mps 750 mmHg 46%
19:00 +25°C° 0 mm 4 mps 750 mmHg 51%
20:00 +24°C° 0 mm 3 mps 751 mmHg 56%
21:00 +22°C° 0 mm 3 mps 751 mmHg 60%
22:00 +21°C° 0 mm 3 mps 751 mmHg 63%
23:00 +20°C° 0 mm 3 mps 751 mmHg 66%
Show more

We Need Your Consent

Meteoprog and our Service Providers may store and access personal data such as cookies, device identifiers or other similar technologies on your device and process such data to personalise content and ads, as well as provide social media features and to analyse the traffic.

  • Store and/or access information on your device

    Cookies, device identifiers or other information can be stored or accessed on your device for the purposes indicated above.

  • Personalised ads and content, ad and content measurement, audience insights, and products development

    Ads and content can be personalised based on a profile. More data can be added to better personalise ads and content. Ad and content performance can be measured. Insights about the audience who saw the ads and content can be derived. Such data can be used to develop or improve user’s experience, systems and software.

By clicking ‘I Agree’ you will allow the use of indicated cookies, device identifiers, web beacons or other similar technologies. Your settings can be changed in the browser on your device.

For certain purposes, legitimate interests may be relied on, rather than consent. You can read more about this in our Privacy and Cookie Policy.